User: anonymous   Login
Location: Bangkok
(13.7500°N, 100.5170°E)
Time: 17:15:29
(UTC+07:00)
Language:

Cosmos 1898 Rocket - Orbit

View from above orbital plane
View from above orbital plane
View from above satellite
View from above satellite

Ground track
Ground track

The orbit data is extracted from the following two-line orbital elements,

1 18586U 87098B   16271.89610980  .00000137  00000-0  55324-4 0  9992
2 18586  74.0066  58.2990 0020924 179.7399 344.0211 14.36740909509695
Epoch (UTC): 27 September 2016 21:30:23
Eccentricity: 0.0020924
inclination: 74.0066°
perigee height: 754 km
apogee height: 784 km
right ascension of ascending node: 58.2990°
argument of perigee: 179.7399°
revolutions per day: 14.36740909
mean anomaly at epoch: 344.0211°
orbit number at epoch: 50969

The dashed part of the orbit path shows where the satellite is in the earth's shadow,  

DLR